Regional Weather Roundup
Issued by NWS Northern Indiana

Home | Current Version | Previous Version | Text Only | Print | Product List | Glossary On
Versions: 1 2 3 4 5 6 7 8 9 10 11 12 13 14 15 16 17 18 19 20 21 22 23 24 25 26 27 28 29 30 31 32 33 34 35 36 37 38 39 40 41 42 43 44 45 46 47 48 49 50
000
ASUS43 KIWX 221410
RWRIWX

KIWX WEATHER ROUNDUP
NATIONAL WEATHER SERVICE NORTHERN INDIANA
1000 AM EDT FRI AUG 22 2014

NOTE: "FAIR" INDICATES FEW OR NO CLOUDS BELOW 12,000 FEET WITH NO
SIGNIFICANT WEATHER AND/OR OBSTRUCTIONS TO VISIBILITY.

* THESE STATIONS ARE NOT UNDER NWS QUALITY CONTROL. THEY ALSO MAY NOT
  REPORT WEATHER SUCH AS PRECIPITATION OR FOG.

INZ001>027-221500-
NORTHERN INDIANA

CITY           SKY/WX    TMP DP  RH WIND       PRES   REMARKS
GARY*          PTSUNNY   75  73  94 MISG      29.96R
VALPARAISO     CLOUDY    74  71  91 S7        29.98R
MICHIGAN CITY* CLOUDY    73  72  94 CALM      29.97S
LAPORTE*       PTSUNNY   73  73 100 S5        29.99S
KNOX*          CLOUDY    72  69  90 S3        29.97S
SOUTH BEND     CLOUDY    74  70  87 SW9       29.99R
ELKHART*       LGT RAIN  73  72  94 SW8       29.99R
GOSHEN         PTSUNNY   77  72  84 S12       29.98R
MONTICELLO*    CLOUDY    73  72  97 CALM      29.97F
LOGANSPORT*    CLOUDY    72  68  88 S5        29.98F
ROCHESTER*     CLOUDY    73  73 100 S5        30.00R
ANGOLA*        CLOUDY    73  66  78 CALM      29.99S
FORT WAYNE     CLOUDY    73  70  90 S8        29.99F
HUNTINGTON*    CLOUDY    72  71  95 S6        29.98F
PERU/GRISSOM   CLOUDY    73  73 100 SW6       29.98F
MARION*        CLOUDY    70  69  97 S8        30.00F

$$
INZ028>050-221500-
CENTRAL INDIANA

CITY           SKY/WX    TMP DP  RH WIND       PRES   REMARKS
LAFAYETTE      CLOUDY    71  71 100 SE5       29.98F
KOKOMO*        CLOUDY    72  70  94 S7        29.99F
MUNCIE*        LGT RAIN  71  68  90 S7        30.01F
INDIANAPOLIS   CLOUDY    73  70  90 NE8       30.01S

$$
MIZ043>046-050>051-056>058-064>065-071>073-077>080-221500-
SOUTHWEST LOWER MICHIGAN

CITY           SKY/WX    TMP DP  RH WIND       PRES   REMARKS
BATTLE CREEK   CLOUDY    72  68  87 SE6       29.99S
BENTON HARBOR  CLOUDY    74  71  91 SE7       29.96R
COLDWATER*     CLOUDY    73  71  96 S3        29.98S FOG
HILLSDALE*     CLOUDY    71  71 100 SE5       30.00S FOG
HOLLAND        CLOUDY    73  71  93 S3        29.97S FOG
GRAND RAPIDS   CLOUDY    72  72 100 E6        29.97S FOG
KALAMAZOO      FOG       72  69  90 S7        29.98S VSB 1
STURGIS*         N/A     73  72  94 SW7       29.98S
THREE RIVERS*  CLOUDY    73  72  95 SW3       29.98S FOG

$$
OHZ001>008-015>018-024>025-221500-
NORTHWEST OHIO

CITY           SKY/WX    TMP DP  RH WIND       PRES   REMARKS
WAUSEON*       PTSUNNY   75  72  88 S6        29.99R
DEFIANCE       CLOUDY    75  69  81 VRB3      29.99S
FINDLAY        PTSUNNY   76  69  79 CALM      29.98F
TOLEDO EXPRESS MOSUNNY   77  70  79 CALM      29.98S
TOLEDO METCALF CLOUDY    76  69  79 S6        29.99S
LIMA           CLOUDY    75  71  87 S7        30.00R

$$
&&


USA.gov is the U.S. government's official web portal to all federal, state and local government web resources and services.